| time (UTC) | temp F | wind direction | speed MPH | gust MPH | rain 1hr in | rain 24hr in | rain mn in | humidity % | barometer mb |
| 20260902005605 | 78 | 334 | 0.0 | 0.0 | 0.01 | 0.01 | 0.01 | 91 | 1017.5 |
| 20260902005106 | 79 | 334 | 0.0 | 0.0 | 0.01 | 0.01 | 0.01 | 91 | 1017.5 |
| 20260902004605 | 79 | 334 | 0.0 | 0.0 | 0.01 | 0.01 | 0.01 | 91 | 1017.5 |
| 20260902004106 | 79 | 335 | 0.0 | 0.0 | 0.01 | 0.01 | 0.01 | 91 | 1017.5 |
| 20260902003606 | 79 | 335 | 0.0 | 0.0 | 0.01 | 0.01 | 0.01 | 90 | 1017.5 |
| 20260902003106 | 79 | 335 | 0.0 | 0.0 | 0.00 | 0.00 | 0.00 | 90 | 1017.5 |
| 20260902002606 | 79 | 335 | 0.0 | 0.0 | 0.00 | 0.00 | 0.00 | 90 | 1017.5 |
| 20260902002105 | 80 | 335 | 0.0 | 0.0 | 0.00 | 0.00 | 0.00 | 89 | 1017.5 |
| 20260902001605 | 80 | 335 | 0.0 | 0.0 | 0.00 | 0.00 | 0.00 | 89 | 1017.4 |
| 20260902001106 | 80 | 335 | 0.0 | 0.0 | 0.00 | 0.00 | 0.00 | 89 | 1017.4 |
| 20260902000605 | 80 | 335 | 0.0 | 0.0 | 0.00 | 0.00 | 0.00 | 88 | 1017.3 |
| 20260902000109 | 80 | 335 | 0.0 | 0.0 | 0.00 | 0.00 | 0.00 | 88 | 1017.2 |
| 20260901235606 | 80 | 335 | 0.0 | 0.0 | 0.00 | 0.00 | 0.00 | 88 | 1017.2 |
| 20260901235105 | 80 | 335 | 0.0 | 0.0 | 0.00 | 0.00 | 0.00 | 88 | 1017.0 |
| 20260901234106 | 81 | 335 | 0.0 | 0.0 | 0.00 | 0.00 | 0.00 | 87 | 1016.9 |
| 20260901233605 | 81 | 335 | 0.0 | 0.0 | 0.00 | 0.00 | 0.00 | 88 | 1016.8 |
| 20260901233106 | 81 | 335 | 0.0 | 0.0 | 0.00 | 0.00 | 0.00 | 87 | 1016.8 |
| 20260901232605 | 81 | 335 | 0.0 | 0.0 | 0.00 | 0.00 | 0.00 | 87 | 1016.8 |
| 20260901232105 | 81 | 335 | 0.0 | 0.0 | 0.00 | 0.00 | 0.00 | 87 | 1016.9 |
| 20260901231606 | 81 | 338 | 0.0 | 0.0 | 0.00 | 0.00 | 0.00 | 87 | 1017.0 |
| 20260901231105 | 81 | 338 | 0.0 | 0.0 | 0.00 | 0.00 | 0.00 | 88 | 1017.0 |
| 20260901230605 | 81 | 338 | 0.0 | 0.0 | 0.00 | 0.00 | 0.00 | 88 | 1017.1 |
| 20260901230109 | 81 | 338 | 0.0 | 0.0 | 0.00 | 0.00 | 0.00 | 88 | 1017.0 |
| 20260901225605 | 81 | 336 | 0.0 | 0.0 | 0.00 | 0.00 | 0.00 | 89 | 1017.0 |
| 20260901225106 | 82 | 336 | 0.0 | 0.0 | 0.00 | 0.00 | 0.00 | 89 | 1017.0 |
| 20260901224105 | 82 | 336 | 0.0 | 0.0 | 0.00 | 0.00 | 0.00 | 89 | 1017.0 |
| 20260901223605 | 82 | 336 | 0.0 | 0.0 | 0.00 | 0.00 | 0.00 | 89 | 1017.0 |
| 20260901223106 | 82 | 20 | 0.0 | 0.0 | 0.00 | 0.00 | 0.00 | 89 | 1017.1 |
| 20260901222605 | 82 | 20 | 0.0 | 0.0 | 0.00 | 0.00 | 0.00 | 89 | 1017.1 |
| 20260901222105 | 82 | 20 | 0.0 | 0.0 | 0.00 | 0.00 | 0.00 | 88 | 1017.0 |
| 20260901221606 | 82 | 20 | 0.0 | 0.0 | 0.00 | 0.00 | 0.00 | 88 | 1016.9 |
| 20260901220110 | 82 | 20 | 0.0 | 0.0 | 0.00 | 0.00 | 0.00 | 88 | 1016.7 |
| 20260901215605 | 82 | 20 | 0.0 | 0.0 | 0.00 | 0.00 | 0.00 | 87 | 1016.7 |
| 20260901215105 | 82 | 20 | 0.0 | 0.0 | 0.00 | 0.00 | 0.00 | 88 | 1016.6 |
| 20260901214605 | 82 | 20 | 0.0 | 0.0 | 0.00 | 0.00 | 0.00 | 87 | 1016.6 |
| 20260901214105 | 82 | 20 | 0.0 | 0.0 | 0.00 | 0.00 | 0.00 | 87 | 1016.5 |
| 20260901213606 | 82 | 20 | 0.0 | 0.0 | 0.00 | 0.00 | 0.00 | 86 | 1016.5 |
| 20260901213105 | 82 | 20 | 0.0 | 0.0 | 0.00 | 0.00 | 0.00 | 87 | 1016.6 |
| 20260901212606 | 82 | 20 | 0.0 | 0.0 | 0.00 | 0.00 | 0.00 | 86 | 1016.5 |
| 20260901212105 | 83 | 20 | 0.0 | 0.0 | 0.00 | 0.00 | 0.00 | 86 | 1016.4 |
| 20260901211105 | 83 | 75 | 0.0 | 0.0 | 0.00 | 0.00 | 0.00 | 85 | 1016.4 |
| 20260901210605 | 83 | 66 | 0.0 | 0.0 | 0.00 | 0.00 | 0.00 | 84 | 1016.6 |
| 20260901205605 | 84 | 103 | 0.0 | 0.0 | 0.00 | 0.00 | 0.00 | 82 | 1016.6 |
| 20260901205105 | 85 | 54 | 0.0 | 1.0 | 0.00 | 0.00 | 0.00 | 81 | 1016.5 |
| 20260901204605 | 85 | 47 | 0.0 | 1.0 | 0.00 | 0.00 | 0.00 | 80 | 1016.5 |
| 20260901204105 | 85 | 31 | 0.0 | 6.0 | 0.00 | 0.00 | 0.00 | 81 | 1016.4 |
| 20260901203606 | 86 | 56 | 0.0 | 3.0 | 0.00 | 0.00 | 0.00 | 81 | 1016.4 |
| 20260901203106 | 87 | 101 | 1.0 | 9.0 | 0.00 | 0.00 | 0.00 | 79 | 1016.4 |
| 20260901202605 | 88 | 58 | 0.0 | 5.0 | 0.00 | 0.00 | 0.00 | 78 | 1016.3 |
| 20260901202105 | 89 | 63 | 1.0 | 8.0 | 0.00 | 0.00 | 0.00 | 77 | 1016.2 |
| 20260901201605 | 89 | 52 | 0.0 | 3.0 | 0.00 | 0.00 | 0.00 | 77 | 1016.2 |
| 20260901201105 | 89 | 327 | 0.0 | 5.0 | 0.00 | 0.00 | 0.00 | 76 | 1016.3 |
| 20260901200605 | 90 | 42 | 0.0 | 9.0 | 0.00 | 0.00 | 0.00 | 76 | 1016.3 |
| 20260901200109 | 89 | 44 | 1.0 | 3.0 | 0.00 | 0.00 | 0.00 | 75 | 1016.3 |
| 20260901195605 | 90 | 35 | 0.0 | 0.0 | 0.00 | 0.00 | 0.00 | 77 | 1016.3 |
| 20260901195105 | 89 | 26 | 0.0 | 2.0 | 0.00 | 0.00 | 0.00 | 76 | 1016.4 |
| 20260901194605 | 89 | 55 | 0.0 | 1.0 | 0.00 | 0.00 | 0.00 | 76 | 1016.4 |
| 20260901194106 | 89 | 44 | 0.0 | 1.0 | 0.00 | 0.00 | 0.00 | 77 | 1016.4 |
| 20260901193606 | 89 | 28 | 0.0 | 0.0 | 0.00 | 0.00 | 0.00 | 75 | 1016.5 |
| 20260901193105 | 89 | 137 | 0.0 | 1.0 | 0.00 | 0.00 | 0.00 | 77 | 1016.5 |
| 20260901191607 | 89 | 47 | 0.0 | 0.0 | 0.00 | 0.00 | 0.00 | 77 | 1016.7 |
| 20260901191105 | 89 | 99 | 0.0 | 0.0 | 0.00 | 0.00 | 0.00 | 77 | 1016.6 |
| 20260901190605 | 89 | 56 | 0.0 | 1.0 | 0.00 | 0.00 | 0.00 | 77 | 1016.6 |
| 20260901190109 | 88 | 129 | 0.0 | 3.0 | 0.00 | 0.00 | 0.00 | 78 | 1016.7 |
| 20260901185605 | 88 | 61 | 0.0 | 1.0 | 0.00 | 0.00 | 0.00 | 80 | 1016.7 |
| 20260901185104 | 88 | 54 | 0.0 | 0.0 | 0.00 | 0.00 | 0.00 | 79 | 1016.9 |
| 20260901184605 | 88 | 26 | 0.0 | 1.0 | 0.00 | 0.00 | 0.00 | 79 | 1017.0 |
| 20260901184105 | 88 | 145 | 0.0 | 2.0 | 0.00 | 0.00 | 0.00 | 79 | 1017.1 |
| 20260901183605 | 89 | 30 | 0.0 | 3.0 | 0.00 | 0.00 | 0.00 | 77 | 1017.2 |
| 20260901183106 | 89 | 129 | 0.0 | 1.0 | 0.00 | 0.00 | 0.00 | 77 | 1017.2 |
| 20260901182605 | 89 | 77 | 0.0 | 1.0 | 0.00 | 0.00 | 0.00 | 77 | 1017.3 |
| 20260901182105 | 89 | 167 | 0.0 | 2.0 | 0.00 | 0.00 | 0.00 | 77 | 1017.3 |
| 20260901181605 | 88 | 81 | 0.0 | 1.0 | 0.00 | 0.00 | 0.00 | 80 | 1017.4 |
| 20260901181105 | 88 | 50 | 0.0 | 5.0 | 0.00 | 0.00 | 0.00 | 77 | 1017.5 |
| 20260901180605 | 88 | 45 | 1.0 | 6.0 | 0.00 | 0.00 | 0.00 | 76 | 1017.5 |
| 20260901180110 | 89 | 38 | 0.0 | 3.0 | 0.00 | 0.00 | 0.00 | 75 | 1017.5 |
| 20260901175605 | 89 | 299 | 0.0 | 3.0 | 0.00 | 0.00 | 0.00 | 76 | 1017.5 |
| 20260901175105 | 89 | 326 | 0.0 | 0.0 | 0.00 | 0.00 | 0.00 | 80 | 1017.7 |
| 20260901174604 | 88 | 269 | 0.0 | 0.0 | 0.00 | 0.00 | 0.00 | 78 | 1017.9 |
| 20260901174106 | 87 | 62 | 0.0 | 0.0 | 0.00 | 0.00 | 0.00 | 79 | 1018.1 |
| 20260901173604 | 87 | 31 | 0.0 | 0.0 | 0.00 | 0.00 | 0.00 | 80 | 1018.2 |
| 20260901173104 | 87 | 324 | 0.0 | 1.0 | 0.00 | 0.00 | 0.00 | 79 | 1018.2 |
| 20260901172605 | 87 | 18 | 0.0 | 0.0 | 0.00 | 0.00 | 0.00 | 79 | 1018.3 |
| 20260901172105 | 87 | 16 | 0.0 | 0.0 | 0.00 | 0.00 | 0.00 | 79 | 1018.3 |
| 20260901171604 | 87 | 15 | 0.0 | 0.0 | 0.00 | 0.00 | 0.00 | 81 | 1018.4 |
| 20260901171105 | 87 | 47 | 0.0 | 1.0 | 0.00 | 0.00 | 0.00 | 80 | 1018.4 |
| 20260901170605 | 87 | 37 | 0.0 | 1.0 | 0.00 | 0.00 | 0.00 | 82 | 1018.4 |
| 20260901164605 | 87 | 309 | 0.0 | 3.0 | 0.00 | 0.00 | 0.00 | 82 | 1018.4 |
| 20260901163105 | 86 | 326 | 0.0 | 0.0 | 0.00 | 0.00 | 0.00 | 85 | 1018.6 |
| 20260901162605 | 86 | 327 | 1.0 | 3.0 | 0.00 | 0.00 | 0.00 | 82 | 1018.6 |
| 20260901162104 | 86 | 321 | 0.0 | 2.0 | 0.00 | 0.00 | 0.00 | 82 | 1018.7 |
| 20260901161605 | 86 | 335 | 0.0 | 5.0 | 0.00 | 0.00 | 0.00 | 82 | 1018.7 |
| 20260901161105 | 86 | 317 | 1.0 | 6.0 | 0.00 | 0.00 | 0.00 | 83 | 1018.9 |
| 20260901160604 | 85 | 313 | 0.0 | 0.0 | 0.00 | 0.00 | 0.00 | 81 | 1018.9 |
| 20260901160109 | 85 | 313 | 0.0 | 1.0 | 0.00 | 0.00 | 0.00 | 80 | 1019.0 |
| 20260901155604 | 86 | 315 | 0.0 | 0.0 | 0.00 | 0.00 | 0.00 | 82 | 1019.0 |
| 20260901155105 | 86 | 308 | 0.0 | 1.0 | 0.00 | 0.00 | 0.00 | 81 | 1019.0 |
| 20260901154604 | 87 | 309 | 0.0 | 3.0 | 0.00 | 0.00 | 0.00 | 83 | 1019.1 |
| 20260901154105 | 86 | 334 | 1.0 | 3.0 | 0.00 | 0.00 | 0.00 | 83 | 1019.1 |
| 20260901153605 | 86 | 301 | 1.0 | 3.0 | 0.00 | 0.00 | 0.00 | 83 | 1019.1 |
| 20260901153104 | 85 | 320 | 0.0 | 0.0 | 0.00 | 0.00 | 0.00 | 85 | 1019.2 |
| 20260901152604 | 85 | 315 | 0.0 | 1.0 | 0.00 | 0.00 | 0.00 | 85 | 1019.2 |
| 20260901152104 | 85 | 51 | 0.0 | 2.0 | 0.00 | 0.00 | 0.00 | 86 | 1019.2 |
| 20260901151605 | 84 | 19 | 0.0 | 1.0 | 0.00 | 0.00 | 0.00 | 87 | 1019.2 |
| 20260901151104 | 83 | 326 | 0.0 | 3.0 | 0.00 | 0.00 | 0.00 | 87 | 1019.2 |
| 20260901150108 | 83 | 11 | 1.0 | 5.0 | 0.00 | 0.00 | 0.00 | 89 | 1019.2 |
| 20260901145605 | 82 | 136 | 2.0 | 3.0 | 0.00 | 0.00 | 0.00 | 91 | 1019.2 |
| 20260901145105 | 82 | 317 | 2.0 | 3.0 | 0.00 | 0.00 | 0.00 | 92 | 1019.1 |
| 20260901144604 | 81 | 58 | 1.0 | 3.0 | 0.00 | 0.00 | 0.00 | 94 | 1019.0 |
| 20260901143604 | 79 | 339 | 1.0 | 2.0 | 0.00 | 0.00 | 0.00 | 95 | 1019.0 |
| 20260901142604 | 79 | 336 | 0.0 | 3.0 | 0.00 | 0.00 | 0.00 | 95 | 1018.9 |
| 20260901142105 | 79 | 331 | 0.0 | 2.0 | 0.00 | 0.00 | 0.00 | 95 | 1018.9 |
| 20260901141605 | 78 | 329 | 2.0 | 5.0 | 0.00 | 0.00 | 0.00 | 95 | 1018.8 |
| 20260901140604 | 78 | 359 | 1.0 | 2.0 | 0.00 | 0.00 | 0.00 | 96 | 1018.8 |
| 20260901140108 | 78 | 359 | 1.0 | 2.0 | 0.00 | 0.00 | 0.00 | 95 | 1018.7 |
| 20260901135604 | 78 | 1 | 1.0 | 3.0 | 0.00 | 0.00 | 0.00 | 96 | 1018.6 |
| 20260901135104 | 77 | 355 | 1.0 | 3.0 | 0.00 | 0.00 | 0.00 | 95 | 1018.7 |
| 20260901133604 | 77 | 317 | 1.0 | 3.0 | 0.00 | 0.00 | 0.00 | 95 | 1018.7 |
| 20260901133105 | 77 | 322 | 1.0 | 5.0 | 0.00 | 0.00 | 0.00 | 95 | 1018.7 |
| 20260901132605 | 77 | 319 | 2.0 | 5.0 | 0.00 | 0.00 | 0.00 | 95 | 1018.6 |
| 20260901132105 | 77 | 313 | 2.0 | 3.0 | 0.00 | 0.00 | 0.00 | 95 | 1018.6 |
| 20260901131604 | 76 | 312 | 1.0 | 3.0 | 0.00 | 0.00 | 0.00 | 96 | 1018.6 |
| 20260901131105 | 76 | 312 | 3.0 | 3.0 | 0.00 | 0.00 | 0.00 | 96 | 1018.5 |
| 20260901130604 | 76 | 315 | 2.0 | 3.0 | 0.00 | 0.00 | 0.00 | 95 | 1018.5 |
| 20260901130110 | 76 | 315 | 2.0 | 3.0 | 0.00 | 0.00 | 0.00 | 95 | 1018.5 |
| 20260901125604 | 76 | 309 | 1.0 | 3.0 | 0.00 | 0.00 | 0.00 | 95 | 1018.6 |
| 20260901125104 | 76 | 305 | 0.0 | 3.0 | 0.00 | 0.00 | 0.00 | 95 | 1018.5 |
| 20260901124605 | 76 | 310 | 2.0 | 3.0 | 0.00 | 0.00 | 0.00 | 95 | 1018.5 |
| 20260901124105 | 76 | 308 | 0.0 | 1.0 | 0.00 | 0.00 | 0.00 | 96 | 1018.4 |
| 20260901123604 | 76 | 308 | 0.0 | 2.0 | 0.00 | 0.00 | 0.00 | 95 | 1018.4 |
| 20260901123104 | 75 | 308 | 1.0 | 3.0 | 0.00 | 0.00 | 0.00 | 95 | 1018.3 |
| 20260901122605 | 75 | 308 | 1.0 | 2.0 | 0.00 | 0.00 | 0.00 | 95 | 1018.2 |
| 20260901121604 | 75 | 309 | 2.0 | 3.0 | 0.00 | 0.00 | 0.00 | 95 | 1018.1 |
| 20260901121105 | 75 | 315 | 2.0 | 3.0 | 0.00 | 0.00 | 0.00 | 95 | 1018.0 |
| 20260901120604 | 75 | 315 | 1.0 | 2.0 | 0.00 | 0.00 | 0.00 | 95 | 1018.0 |
| 20260901120109 | 75 | 315 | 0.0 | 1.0 | 0.00 | 0.00 | 0.00 | 95 | 1018.0 |
| 20260901115605 | 75 | 315 | 0.0 | 0.0 | 0.00 | 0.00 | 0.00 | 95 | 1017.9 |
| 20260901114104 | 75 | 315 | 0.0 | 1.0 | 0.00 | 0.00 | 0.00 | 95 | 1017.8 |
| 20260901113604 | 75 | 315 | 1.0 | 3.0 | 0.00 | 0.00 | 0.00 | 95 | 1017.7 |
| 20260901113105 | 75 | 315 | 1.0 | 2.0 | 0.00 | 0.00 | 0.00 | 95 | 1017.7 |
| 20260901112604 | 75 | 315 | 0.0 | 2.0 | 0.00 | 0.00 | 0.00 | 95 | 1017.8 |
| 20260901112104 | 75 | 315 | 0.0 | 0.0 | 0.00 | 0.00 | 0.00 | 95 | 1017.9 |
| 20260901111604 | 75 | 315 | 0.0 | 2.0 | 0.00 | 0.00 | 0.00 | 95 | 1017.8 |
| 20260901111105 | 75 | 315 | 0.0 | 2.0 | 0.00 | 0.00 | 0.00 | 95 | 1017.7 |
| 20260901110604 | 75 | 315 | 0.0 | 0.0 | 0.00 | 0.00 | 0.00 | 95 | 1017.7 |
| 20260901105605 | 75 | 315 | 0.0 | 1.0 | 0.00 | 0.00 | 0.00 | 95 | 1017.6 |
| 20260901105104 | 75 | 315 | 0.0 | 0.0 | 0.00 | 0.00 | 0.00 | 95 | 1017.5 |
| 20260901104604 | 75 | 315 | 0.0 | 1.0 | 0.00 | 0.00 | 0.00 | 95 | 1017.4 |
| 20260901104104 | 75 | 315 | 0.0 | 1.0 | 0.00 | 0.00 | 0.00 | 95 | 1017.4 |
| 20260901103604 | 75 | 315 | 0.0 | 1.0 | 0.00 | 0.00 | 0.00 | 95 | 1017.3 |
| 20260901103105 | 75 | 315 | 0.0 | 1.0 | 0.00 | 0.00 | 0.00 | 95 | 1017.4 |
| 20260901102604 | 75 | 315 | 0.0 | 1.0 | 0.00 | 0.00 | 0.00 | 95 | 1017.3 |
| 20260901102104 | 75 | 315 | 0.0 | 0.0 | 0.00 | 0.00 | 0.00 | 95 | 1017.3 |
| 20260901101605 | 75 | 315 | 0.0 | 0.0 | 0.00 | 0.00 | 0.00 | 95 | 1017.3 |
| 20260901101104 | 75 | 315 | 0.0 | 3.0 | 0.00 | 0.00 | 0.00 | 95 | 1017.3 |
| 20260901100604 | 75 | 316 | 1.0 | 3.0 | 0.00 | 0.00 | 0.00 | 95 | 1017.2 |
| 20260901100107 | 75 | 314 | 0.0 | 3.0 | 0.00 | 0.00 | 0.00 | 95 | 1017.2 |
| 20260901095604 | 75 | 314 | 1.0 | 3.0 | 0.00 | 0.00 | 0.00 | 95 | 1017.2 |
| 20260901095104 | 74 | 313 | 1.0 | 3.0 | 0.00 | 0.00 | 0.00 | 95 | 1017.2 |
| 20260901094104 | 74 | 313 | 1.0 | 3.0 | 0.00 | 0.00 | 0.00 | 95 | 1017.1 |
| 20260901093604 | 75 | 315 | 2.0 | 3.0 | 0.00 | 0.00 | 0.00 | 95 | 1017.1 |
| 20260901093104 | 75 | 322 | 1.0 | 2.0 | 0.00 | 0.00 | 0.00 | 95 | 1017.0 |
| 20260901092604 | 75 | 322 | 1.0 | 2.0 | 0.00 | 0.00 | 0.00 | 95 | 1017.0 |
| 20260901092104 | 74 | 322 | 1.0 | 3.0 | 0.00 | 0.00 | 0.00 | 95 | 1016.9 |
| 20260901091604 | 74 | 323 | 1.0 | 3.0 | 0.00 | 0.00 | 0.00 | 95 | 1016.9 |
| 20260901091104 | 74 | 323 | 1.0 | 3.0 | 0.00 | 0.00 | 0.00 | 95 | 1016.8 |
| 20260901090605 | 74 | 324 | 1.0 | 3.0 | 0.00 | 0.00 | 0.00 | 95 | 1016.8 |
| 20260901090108 | 74 | 323 | 1.0 | 3.0 | 0.00 | 0.00 | 0.00 | 95 | 1016.8 |
| 20260901085104 | 74 | 321 | 0.0 | 0.0 | 0.00 | 0.00 | 0.00 | 94 | 1016.7 |
| 20260901084604 | 74 | 330 | 0.0 | 0.0 | 0.00 | 0.00 | 0.00 | 94 | 1016.6 |
| 20260901084104 | 74 | 330 | 0.0 | 0.0 | 0.00 | 0.00 | 0.00 | 94 | 1016.6 |
| 20260901083604 | 74 | 330 | 0.0 | 0.0 | 0.00 | 0.00 | 0.00 | 94 | 1016.7 |
| 20260901082104 | 74 | 330 | 0.0 | 0.0 | 0.00 | 0.00 | 0.00 | 94 | 1016.7 |
| 20260901081604 | 74 | 330 | 0.0 | 0.0 | 0.00 | 0.00 | 0.00 | 94 | 1016.7 |
| 20260901081103 | 74 | 330 | 0.0 | 0.0 | 0.00 | 0.00 | 0.00 | 94 | 1016.7 |
| 20260901080604 | 74 | 330 | 0.0 | 0.0 | 0.00 | 0.00 | 0.00 | 94 | 1016.7 |
| 20260901075604 | 74 | 330 | 0.0 | 0.0 | 0.00 | 0.00 | 0.00 | 94 | 1016.7 |
| 20260901075104 | 74 | 330 | 0.0 | 0.0 | 0.00 | 0.00 | 0.00 | 94 | 1016.8 |
| 20260901074605 | 74 | 330 | 0.0 | 0.0 | 0.00 | 0.00 | 0.00 | 94 | 1016.8 |
| 20260901073604 | 74 | 330 | 0.0 | 0.0 | 0.00 | 0.00 | 0.00 | 94 | 1016.9 |
| 20260901073104 | 74 | 330 | 0.0 | 0.0 | 0.00 | 0.00 | 0.00 | 94 | 1017.0 |
| 20260901072604 | 74 | 330 | 0.0 | 0.0 | 0.00 | 0.00 | 0.00 | 94 | 1017.0 |
| 20260901072105 | 74 | 330 | 0.0 | 0.0 | 0.00 | 0.00 | 0.00 | 94 | 1017.1 |
| 20260901071604 | 74 | 330 | 0.0 | 0.0 | 0.00 | 0.00 | 0.00 | 94 | 1017.2 |
| 20260901071104 | 74 | 330 | 0.0 | 0.0 | 0.00 | 0.00 | 0.00 | 94 | 1017.2 |
| 20260901070604 | 74 | 330 | 0.0 | 0.0 | 0.00 | 0.00 | 0.00 | 94 | 1017.2 |
| 20260901070108 | 74 | 330 | 0.0 | 0.0 | 0.00 | 0.00 | 0.00 | 94 | 1017.4 |
| 20260901065604 | 74 | 330 | 0.0 | 0.0 | 0.00 | 0.00 | 0.00 | 94 | 1017.5 |
| 20260901065105 | 74 | 330 | 0.0 | 0.0 | 0.00 | 0.00 | 0.00 | 94 | 1017.5 |
| 20260901064604 | 74 | 330 | 0.0 | 0.0 | 0.00 | 0.00 | 0.00 | 94 | 1017.5 |
| 20260901064103 | 74 | 330 | 0.0 | 0.0 | 0.00 | 0.00 | 0.00 | 94 | 1017.5 |
| 20260901063604 | 74 | 330 | 0.0 | 0.0 | 0.00 | 0.00 | 0.00 | 94 | 1017.6 |
| 20260901063104 | 74 | 330 | 0.0 | 0.0 | 0.00 | 0.00 | 0.00 | 94 | 1017.7 |
| 20260901062605 | 74 | 330 | 0.0 | 0.0 | 0.00 | 0.00 | 0.00 | 94 | 1017.9 |
| 20260901062104 | 74 | 330 | 0.0 | 0.0 | 0.00 | 0.00 | 0.00 | 94 | 1018.0 |
| 20260901061604 | 74 | 330 | 0.0 | 0.0 | 0.00 | 0.00 | 0.00 | 94 | 1018.1 |
| 20260901061104 | 74 | 331 | 0.0 | 0.0 | 0.00 | 0.00 | 0.00 | 94 | 1018.3 |
| 20260901060604 | 74 | 334 | 0.0 | 0.0 | 0.00 | 0.00 | 0.00 | 94 | 1018.3 |
| 20260901060109 | 75 | 334 | 0.0 | 0.0 | 0.00 | 0.00 | 0.00 | 94 | 1018.2 |
| 20260901055104 | 75 | 334 | 0.0 | 0.0 | 0.00 | 0.00 | 0.00 | 94 | 1018.3 |
| 20260901054604 | 75 | 334 | 0.0 | 0.0 | 0.00 | 0.00 | 0.00 | 94 | 1018.4 |
| 20260901054104 | 75 | 334 | 0.0 | 0.0 | 0.00 | 0.00 | 0.00 | 94 | 1018.4 |
| 20260901053604 | 75 | 334 | 0.0 | 0.0 | 0.00 | 0.00 | 0.00 | 94 | 1018.4 |
| 20260901053105 | 75 | 334 | 0.0 | 0.0 | 0.00 | 0.00 | 0.00 | 94 | 1018.4 |
| 20260901052604 | 75 | 334 | 0.0 | 0.0 | 0.00 | 0.00 | 0.00 | 94 | 1018.5 |
| 20260901052104 | 75 | 336 | 0.0 | 0.0 | 0.00 | 0.00 | 0.00 | 94 | 1018.6 |
| 20260901051604 | 75 | 336 | 0.0 | 0.0 | 0.00 | 0.00 | 0.00 | 94 | 1018.5 |
| 20260901051104 | 75 | 336 | 0.0 | 0.0 | 0.00 | 0.00 | 0.00 | 94 | 1018.6 |
| 20260901050606 | 75 | 336 | 0.0 | 10.0 | 0.00 | 0.00 | 0.00 | 94 | 1018.6 |
| 20260901050110 | 75 | 27 | 0.0 | 0.0 | 0.00 | 0.00 | 0.00 | 94 | 1018.7 |
| 20260901045106 | 75 | 34 | 0.0 | 0.0 | 0.00 | 0.00 | 0.00 | 94 | 1018.7 |
| 20260901044106 | 76 | 34 | 0.0 | 0.0 | 0.00 | 0.00 | 0.00 | 93 | 1018.8 |
| 20260901042605 | 76 | 34 | 0.0 | 0.0 | 0.00 | 0.00 | 0.00 | 94 | 1018.9 |
| 20260901042106 | 76 | 34 | 0.0 | 0.0 | 0.00 | 0.00 | 0.00 | 93 | 1018.9 |
| 20260901041605 | 76 | 34 | 0.0 | 0.0 | 0.00 | 0.00 | 0.00 | 93 | 1018.9 |
| 20260901041106 | 76 | 34 | 0.0 | 0.0 | 0.00 | 0.00 | 0.00 | 93 | 1018.9 |
| 20260901040605 | 76 | 34 | 0.0 | 0.0 | 0.00 | 0.00 | 0.00 | 93 | 1018.9 |
| 20260901035606 | 76 | 34 | 0.0 | 0.0 | 0.00 | 0.00 | 0.00 | 93 | 1018.9 |
| 20260901035105 | 76 | 34 | 0.0 | 0.0 | 0.00 | 0.00 | 0.00 | 93 | 1018.9 |
| 20260901034105 | 76 | 34 | 0.0 | 0.0 | 0.00 | 0.00 | 0.00 | 93 | 1019.0 |
| 20260901033606 | 76 | 34 | 0.0 | 0.0 | 0.00 | 0.00 | 0.00 | 93 | 1019.1 |
| 20260901033105 | 76 | 34 | 0.0 | 0.0 | 0.00 | 0.00 | 0.00 | 93 | 1019.1 |
| 20260901032606 | 76 | 34 | 0.0 | 0.0 | 0.00 | 0.00 | 0.00 | 93 | 1019.1 |
| 20260901032106 | 76 | 34 | 0.0 | 0.0 | 0.00 | 0.00 | 0.00 | 93 | 1019.1 |
| 20260901031605 | 76 | 34 | 0.0 | 0.0 | 0.00 | 0.00 | 0.00 | 93 | 1019.1 |
| 20260901031106 | 76 | 34 | 0.0 | 0.0 | 0.00 | 0.00 | 0.00 | 93 | 1019.2 |
| 20260901030605 | 76 | 34 | 0.0 | 0.0 | 0.00 | 0.00 | 0.00 | 93 | 1019.1 |
| 20260901030110 | 76 | 34 | 0.0 | 0.0 | 0.00 | 0.00 | 0.00 | 93 | 1019.1 |
| 20260901025605 | 76 | 34 | 0.0 | 0.0 | 0.00 | 0.00 | 0.00 | 93 | 1019.1 |
| 20260901024605 | 76 | 34 | 0.0 | 0.0 | 0.00 | 0.00 | 0.00 | 93 | 1019.0 |
| 20260901024106 | 76 | 34 | 0.0 | 0.0 | 0.00 | 0.00 | 0.00 | 93 | 1019.0 |
| 20260901023606 | 76 | 34 | 0.0 | 0.0 | 0.00 | 0.00 | 0.00 | 93 | 1019.1 |
| 20260901023105 | 76 | 34 | 0.0 | 0.0 | 0.00 | 0.00 | 0.00 | 93 | 1019.1 |
| 20260901022606 | 77 | 34 | 0.0 | 0.0 | 0.00 | 0.00 | 0.00 | 93 | 1019.0 |
| 20260901022105 | 77 | 34 | 0.0 | 0.0 | 0.00 | 0.00 | 0.00 | 93 | 1019.0 |
| 20260901021606 | 77 | 34 | 0.0 | 0.0 | 0.00 | 0.00 | 0.00 | 92 | 1019.0 |
| 20260901021105 | 77 | 34 | 0.0 | 0.0 | 0.00 | 0.00 | 0.00 | 92 | 1018.8 |
| 20260901020606 | 77 | 34 | 0.0 | 0.0 | 0.00 | 0.00 | 0.00 | 92 | 1018.7 |
| 20260901020109 | 77 | 34 | 0.0 | 0.0 | 0.00 | 0.00 | 0.00 | 92 | 1018.6 |
| 20260901015106 | 77 | 34 | 0.0 | 0.0 | 0.00 | 0.00 | 0.00 | 92 | 1018.5 |
| 20260901014605 | 77 | 34 | 0.0 | 0.0 | 0.00 | 0.00 | 0.00 | 92 | 1018.5 |
| 20260901013606 | 77 | 34 | 0.0 | 0.0 | 0.00 | 0.00 | 0.00 | 92 | 1018.4 |
| 20260901013106 | 77 | 34 | 0.0 | 0.0 | 0.00 | 0.00 | 0.00 | 92 | 1018.4 |
| 20260901012605 | 77 | 34 | 0.0 | 0.0 | 0.00 | 0.00 | 0.00 | 92 | 1018.4 |
| 20260901011605 | 77 | 34 | 0.0 | 0.0 | 0.00 | 0.00 | 0.00 | 92 | 1018.2 |
| 20260901011106 | 77 | 34 | 0.0 | 0.0 | 0.00 | 0.00 | 0.00 | 92 | 1018.2 |
| 20260901010110 | 78 | 34 | 0.0 | 0.0 | 0.00 | 0.00 | 0.00 | 92 | 1018.0 |